N9MXT-13 Weather Reports


time (UTC)temp
C
wind
direction
speed
KPH
gust
KPH
rain 1hr
cm
rain 24hr
cm
rain mn
cm
humidity
%
barometer
mb
20260906113457 19 38 0.0 0.0 0.00 0.00 0.00 94 1018.8
20260906112957 19 38 0.0 0.0 0.00 0.00 0.00 94 1018.8
20260906112458 19 38 0.0 0.0 0.00 0.00 0.00 94 1018.7
20260906111957 19 38 0.0 1.6 0.00 0.00 0.00 94 1018.6
20260906111457 19 38 0.0 1.6 0.00 0.00 0.00 94 1018.7
20260906110957 19 33 0.0 1.6 0.00 0.00 0.00 94 1018.6
20260906110459 19 33 0.0 1.6 0.00 0.00 0.00 94 1018.7
20260906110001 19 30 0.0 0.0 0.00 0.00 0.00 94 1018.6
20260906105458 19 31 0.0 0.0 0.00 0.00 0.00 94 1018.5
20260906104457 19 31 0.0 0.0 0.00 0.00 0.00 94 1018.7
20260906103958 19 30 0.0 0.0 0.00 0.00 0.00 94 1018.6
20260906103458 19 30 0.0 0.0 0.00 0.00 0.00 94 1018.4
20260906102958 19 30 0.0 1.6 0.00 0.00 0.00 94 1018.5
20260906102459 19 31 0.0 1.6 0.00 0.00 0.00 94 1018.5
20260906101958 19 41 0.0 0.0 0.00 0.00 0.00 94 1018.3
20260906101458 19 41 0.0 0.0 0.00 0.00 0.00 94 1018.2
20260906100958 19 41 0.0 0.0 0.00 0.00 0.00 94 1018.2
20260906100458 18 41 0.0 0.0 0.00 0.00 0.00 94 1018.2
20260906100003 18 41 0.0 0.0 0.00 0.00 0.00 94 1018.2
20260906095458 18 41 0.0 0.0 0.00 0.00 0.00 94 1018.2
20260906094958 18 41 0.0 0.0 0.00 0.00 0.00 94 1018.2
20260906094458 18 41 0.0 0.0 0.00 0.00 0.00 94 1018.2
20260906093959 18 41 0.0 0.0 0.00 0.00 0.00 94 1018.2
20260906092958 18 42 0.0 0.0 0.00 0.00 0.00 94 1018.1
20260906092458 18 41 0.0 0.0 0.00 0.00 0.00 94 1018.1
20260906091959 18 41 0.0 0.0 0.00 0.00 0.00 93 1018.0
20260906091458 18 42 0.0 0.0 0.00 0.00 0.00 93 1018.0
20260906090959 18 41 0.0 0.0 0.00 0.00 0.00 93 1018.0
20260906090458 18 41 0.0 0.0 0.00 0.00 0.00 93 1018.1
20260906090002 18 41 0.0 0.0 0.00 0.00 0.00 93 1018.1
20260906085458 18 41 0.0 0.0 0.00 0.00 0.00 93 1018.1
20260906084958 18 41 0.0 0.0 0.00 0.00 0.00 93 1018.0
20260906083458 18 41 0.0 0.0 0.00 0.00 0.00 93 1018.0
20260906082958 18 42 0.0 0.0 0.00 0.00 0.00 93 1018.0
20260906082458 18 42 0.0 0.0 0.00 0.00 0.00 93 1018.0
20260906081959 18 42 0.0 0.0 0.00 0.00 0.00 93 1018.0
20260906081457 18 42 0.0 0.0 0.00 0.00 0.00 93 1018.1
20260906080958 18 42 0.0 0.0 0.00 0.00 0.00 92 1018.1
20260906080458 18 42 0.0 0.0 0.00 0.00 0.00 92 1018.1
20260906080000 19 42 0.0 0.0 0.00 0.00 0.00 92 1018.0
20260906075457 19 42 0.0 0.0 0.00 0.00 0.00 92 1017.9
20260906074957 19 42 0.0 0.0 0.00 0.00 0.00 92 1017.9
20260906074457 19 42 0.0 0.0 0.00 0.00 0.00 92 1018.0
20260906073958 19 42 0.0 0.0 0.00 0.00 0.00 92 1018.1
20260906073457 19 42 0.0 0.0 0.00 0.00 0.00 92 1018.1
20260906072957 19 42 0.0 0.0 0.00 0.00 0.00 92 1018.1
20260906071959 19 42 0.0 0.0 0.00 0.00 0.00 92 1018.0
20260906071458 19 42 0.0 0.0 0.00 0.00 0.00 92 1018.0
20260906070958 20 42 0.0 0.0 0.00 0.00 0.00 92 1018.0
20260906070458 20 42 0.0 0.0 0.00 0.00 0.00 91 1018.0
20260906070001 20 42 0.0 0.0 0.00 0.00 0.00 91 1018.0
20260906065458 20 42 0.0 0.0 0.00 0.00 0.00 91 1018.1
20260906064958 20 42 0.0 0.0 0.00 0.00 0.00 91 1018.1
20260906064458 20 42 0.0 0.0 0.00 0.00 0.00 91 1018.1
20260906063958 20 42 0.0 0.0 0.00 0.00 0.00 91 1018.1
20260906062958 20 45 0.0 0.0 0.00 0.00 0.00 91 1018.2
20260906062458 20 45 0.0 0.0 0.00 0.00 0.00 91 1018.2
20260906061958 20 48 0.0 0.0 0.00 0.00 0.00 91 1018.2
20260906061459 20 48 0.0 0.0 0.00 0.00 0.00 91 1018.2
20260906060958 20 48 0.0 0.0 0.00 0.00 0.00 91 1018.1
20260906060458 20 48 0.0 0.0 0.00 0.00 0.00 91 1018.1
20260906055959 20 48 0.0 0.0 0.00 0.00 0.00 91 1018.1
20260906054956 20 48 0.0 0.0 0.00 0.00 0.00 91 1018.3
20260906054458 20 47 0.0 0.0 0.00 0.00 0.00 91 1018.3
20260906053000 20 39 0.0 0.0 0.00 0.00 0.00 91 1018.2
20260906052459 20 39 0.0 3.2 0.00 0.00 0.00 91 1018.2
20260906052001 20 9 0.0 3.2 0.00 0.00 0.00 91 1018.1
20260906051500 20 63 0.0 1.6 0.00 0.00 0.00 91 1018.1
20260906051000 20 53 0.0 1.6 0.00 0.00 0.00 91 1018.0
20260906050500 20 63 0.0 1.6 0.00 0.00 0.00 91 1018.0
20260906045500 20 27 0.0 1.6 0.00 0.00 0.00 91 1017.9
20260906045000 20 31 0.0 1.6 0.00 0.00 0.00 91 1017.8
20260906044503 20 30 0.0 0.0 0.00 0.00 0.00 91 1017.9
20260906044001 20 30 0.0 1.6 0.00 0.00 0.00 91 1017.9
20260906043500 20 30 0.0 1.6 0.00 0.00 0.00 91 1017.8
20260906043000 20 30 0.0 1.6 0.00 0.00 0.00 90 1017.8
20260906042001 20 56 0.0 0.0 0.00 0.00 0.00 90 1017.7
20260906041000 20 58 0.0 1.6 0.00 0.00 0.00 90 1017.5
20260906040500 20 58 0.0 3.2 0.00 0.00 0.00 90 1017.5
20260906040004 20 59 0.0 3.2 0.00 0.00 0.00 90 1017.4
20260906035500 20 68 1.6 4.8 0.00 0.00 0.00 90 1017.3
20260906035000 20 67 0.0 4.8 0.00 0.00 0.00 90 1017.3
20260906034502 20 77 0.0 3.2 0.00 0.00 0.00 90 1017.3
20260906033500 20 69 0.0 0.0 0.00 0.00 0.00 90 1017.1
20260906032501 21 69 0.0 1.6 0.00 0.00 0.00 89 1017.0
20260906032000 21 69 0.0 3.2 0.00 0.00 0.00 89 1016.9
20260906031500 21 69 0.0 3.2 0.00 0.00 0.00 89 1016.8
20260906031000 21 70 0.0 3.2 0.00 0.00 0.00 89 1016.9
20260906025500 21 70 0.0 3.2 0.00 0.10 0.00 88 1016.9
20260906024501 21 62 0.0 3.2 0.00 0.10 0.00 88 1016.9
20260906024000 21 69 0.0 3.2 0.00 0.10 0.00 88 1016.8
20260906023500 21 75 0.0 1.6 0.00 0.10 0.00 88 1016.8
20260906023000 21 41 0.0 1.6 0.00 0.10 0.00 88 1016.8
20260906022500 21 56 0.0 1.6 0.00 0.10 0.00 88 1016.7
20260906022000 21 26 0.0 1.6 0.00 0.10 0.00 88 1016.7
20260906021000 21 68 0.0 3.2 0.00 0.10 0.00 88 1016.9
20260906020500 21 70 0.0 3.2 0.00 0.10 0.00 88 1016.8
20260906020002 21 81 0.0 3.2 0.00 0.10 0.00 88 1016.8
20260906015500 21 70 0.0 4.8 0.00 0.10 0.00 88 1016.8
20260906015000 21 69 1.6 4.8 0.00 0.10 0.00 88 1016.9
20260906014501 21 75 1.6 3.2 0.00 0.10 0.00 88 1017.0
20260906014000 21 66 0.0 3.2 0.00 0.10 0.00 87 1017.0
20260906013500 21 74 0.0 3.2 0.00 0.10 0.00 88 1017.0
20260906013000 21 49 0.0 1.6 0.00 0.10 0.00 87 1016.9
20260906012501 21 45 0.0 3.2 0.00 0.10 0.00 87 1016.9
20260906012000 21 46 0.0 3.2 0.00 0.10 0.00 87 1016.9
20260906011500 21 64 0.0 3.2 0.00 0.10 0.00 87 1016.9
20260906011000 22 58 0.0 3.2 0.00 0.10 0.00 87 1016.9
20260906010501 22 65 0.0 3.2 0.00 0.10 0.00 87 1016.9
20260906010003 22 30 0.0 3.2 0.00 0.10 0.00 87 1017.0
20260906005500 22 40 0.0 3.2 0.00 0.10 0.00 87 1017.0
20260906005000 22 69 1.6 3.2 0.00 0.10 0.00 87 1016.8
20260906004500 22 69 1.6 4.8 0.00 0.10 0.00 86 1016.7
20260906004000 22 70 0.0 3.2 0.00 0.10 0.00 87 1016.7
20260906003459 22 76 0.0 3.2 0.00 0.10 0.00 87 1016.6
20260906003001 22 82 0.0 3.2 0.00 0.10 0.00 87 1016.6
20260906002500 22 65 0.0 3.2 0.00 0.10 0.00 86 1016.6
20260906001959 22 74 0.0 3.2 0.00 0.10 0.00 86 1016.6
20260906001500 22 38 0.0 4.8 0.00 0.10 0.00 86 1016.6
20260906001001 22 71 0.0 4.8 0.00 0.10 0.00 86 1016.6
20260906000500 22 52 0.0 3.2 0.00 0.10 0.00 86 1016.5
20260906000001 22 35 0.0 3.2 0.00 0.10 0.00 85 1016.5
20260905235459 22 60 0.0 3.2 0.00 0.10 0.00 85 1016.4
20260905234959 23 49 1.6 3.2 0.00 0.10 0.00 85 1016.3
20260905234459 23 34 0.0 3.2 0.00 0.10 0.00 84 1016.3
20260905233959 23 70 0.0 3.2 0.00 0.10 0.00 84 1016.2
20260905233500 23 71 0.0 3.2 0.00 0.10 0.00 83 1016.2
20260905232959 23 27 1.6 3.2 0.00 0.10 0.00 83 1016.2
20260905232459 23 12 1.6 4.8 0.00 0.10 0.00 82 1016.2
20260905232000 24 44 1.6 4.8 0.00 0.10 0.00 82 1016.1
20260905231459 24 66 1.6 6.4 0.00 0.10 0.00 82 1016.2
20260905230959 24 78 0.0 6.4 0.00 0.10 0.00 81 1016.1
20260905230459 24 21 0.0 3.2 0.00 0.10 0.00 81 1016.0
20260905225459 25 32 1.6 4.8 0.00 0.10 0.00 81 1015.8
20260905224959 25 64 1.6 0.0 0.00 0.10 0.00 1015.7
20260905224459 -17 0.0 0.0 0.00 0.10 0.00 1015.7
20260905223959 -17 0.0 0.0 0.00 0.10 0.00 1015.7
20260905222958 25 27 1.6 3.2 0.00 0.10 0.00 80 1015.6
20260905222458 25 27 0.0 3.2 0.00 0.10 0.00 80 1015.6
20260905221958 25 45 1.6 3.2 0.00 0.10 0.00 80 1015.6
20260905220958 26 79 1.6 4.8 0.00 0.10 0.00 80 1015.5
20260905220458 26 66 1.6 4.8 0.00 0.10 0.00 78 1015.5
20260905220001 26 67 1.6 4.8 0.00 0.10 0.00 78 1015.5
20260905215459 26 39 0.0 3.2 0.00 0.10 0.00 79 1015.5
20260905214959 26 21 0.0 1.6 0.00 0.10 0.00 78 1015.5
20260905214500 26 20 0.0 1.6 0.00 0.10 0.00 77 1015.5
20260905213459 27 68 0.0 1.6 0.00 0.10 0.00 76 1015.3
20260905212959 27 68 0.0 1.6 0.00 0.10 0.00 75 1015.3
20260905212459 27 34 0.0 1.6 0.00 0.10 0.00 76 1015.3
20260905212000 27 360 0.0 3.2 0.00 0.10 0.00 76 1015.3
20260905210459 26 346 0.0 1.6 0.00 0.10 0.00 77 1015.3
20260905210003 26 18 0.0 1.6 0.00 0.10 0.00 78 1015.3
20260905205459 26 353 0.0 3.2 0.00 0.10 0.00 78 1015.2
20260905204959 26 5 0.0 3.2 0.00 0.10 0.00 78 1015.2
20260905204459 26 63 0.0 1.6 0.00 0.10 0.00 79 1015.3
20260905204000 26 342 0.0 1.6 0.00 0.10 0.00 79 1015.4
20260905203459 26 342 0.0 1.6 0.00 0.10 0.00 79 1015.5
20260905202959 26 340 0.0 1.6 0.00 0.10 0.00 80 1015.5
20260905202459 26 44 0.0 1.6 0.00 0.10 0.00 81 1015.5
20260905202000 26 39 0.0 1.6 0.00 0.10 0.00 81 1015.5
20260905201459 26 40 1.6 3.2 0.00 0.10 0.00 81 1015.5
20260905200959 26 5 1.6 3.2 0.00 0.10 0.00 81 1015.4
20260905200459 26 16 0.0 3.2 0.00 0.10 0.00 83 1015.5
20260905200003 25 324 0.0 3.2 0.00 0.10 0.00 83 1015.4
20260905195458 25 65 0.0 1.6 0.00 0.10 0.00 84 1015.5
20260905194458 25 65 0.0 3.2 0.00 0.10 0.00 84 1015.6
20260905193959 25 65 0.0 3.2 0.00 0.10 0.00 85 1015.7
20260905193458 25 359 0.0 1.6 0.00 0.10 0.00 85 1015.8
20260905192458 24 359 0.0 1.6 0.00 0.10 0.00 86 1015.9
20260905191959 24 358 0.0 1.6 0.00 0.10 0.00 86 1015.9
20260905191458 24 350 0.0 1.6 0.00 0.10 0.00 86 1015.9
20260905190458 24 51 0.0 1.6 0.00 0.10 0.00 86 1016.1
20260905190004 24 51 0.0 1.6 0.00 0.10 0.00 86 1015.9
20260905185459 24 52 0.0 1.6 0.00 0.10 0.00 87 1016.1
20260905185000 24 8 0.0 1.6 0.00 0.10 0.00 88 1016.1
20260905184459 23 7 0.0 1.6 0.00 0.10 0.00 88 1016.2
20260905183000 23 6 0.0 1.6 0.00 0.10 0.00 87 1016.2
20260905182459 23 57 0.0 1.6 0.00 0.10 0.00 88 1016.2
20260905181459 23 11 0.0 1.6 0.00 0.10 0.00 88 1016.3
20260905181000 23 13 0.0 1.6 0.00 0.10 0.00 88 1016.2
20260905180459 23 63 0.0 1.6 0.00 0.10 0.00 88 1016.2
20260905175459 23 34 0.0 1.6 0.00 0.10 0.00 88 1016.2
20260905174959 23 360 0.0 3.2 0.00 0.10 0.00 88 1016.1
20260905174459 23 352 0.0 3.2 0.00 0.10 0.00 88 1016.1
20260905173959 23 15 0.0 1.6 0.00 0.10 0.00 88 1016.1
20260905173459 23 23 0.0 1.6 0.00 0.10 0.00 88 1016.2
20260905172959 23 41 0.0 1.6 0.00 0.10 0.00 88 1016.1
20260905172459 23 40 0.0 1.6 0.00 0.10 0.00 88 1016.1
20260905171459 23 46 0.0 1.6 0.00 0.10 0.00 87 1016.1
20260905170959 23 63 0.0 1.6 0.00 0.10 0.00 87 1016.1
20260905170458 24 25 0.0 3.2 0.00 0.10 0.00 88 1016.1
20260905170002 24 7 0.0 3.2 0.00 0.10 0.00 87 1016.1
20260905165459 24 21 0.0 3.2 0.00 0.10 0.00 87 1016.2
20260905164959 24 22 0.0 3.2 0.00 0.10 0.00 87 1016.2
20260905164459 24 11 0.0 3.2 0.00 0.10 0.00 87 1016.3
20260905163959 24 25 0.0 3.2 0.00 0.10 0.00 88 1016.2
20260905163459 24 347 0.0 3.2 0.00 0.10 0.00 88 1016.2
20260905162959 24 21 0.0 3.2 0.00 0.10 0.00 88 1016.1
20260905162459 24 54 0.0 1.6 0.00 0.10 0.00 88 1016.2
20260905161959 24 59 0.0 1.6 0.00 0.10 0.00 89 1016.1
20260905161459 24 59 0.0 3.2 0.00 0.10 0.00 89 1016.1
20260905160959 24 351 0.0 3.2 0.00 0.10 0.00 88 1016.1
20260905160003 24 20 0.0 1.6 0.00 0.10 0.00 89 1016.1
20260905155457 24 72 0.0 1.6 0.00 0.10 0.00 90 1016.1
20260905154957 23 63 0.0 1.6 0.00 0.10 0.00 90 1016.1
20260905154458 23 27 0.0 3.2 0.00 0.10 0.00 90 1015.9
20260905153958 23 3 0.0 3.2 0.00 0.10 0.00 91 1015.9
20260905153457 23 1 0.0 1.6 0.00 0.10 0.00 92 1015.9
20260905152959 23 359 0.0 3.2 0.00 0.10 0.00 93 1015.7
20260905152457 23 75 1.6 3.2 0.00 0.10 0.00 93 1015.6
20260905151958 23 88 0.0 3.2 0.00 0.10 0.00 94 1015.7
20260905151457 22 74 0.0 3.2 0.00 0.10 0.00 94 1015.6
20260905150957 22 20 0.0 1.6 0.00 0.10 0.00 95 1015.6
20260905150457 22 69 0.0 3.2 0.00 0.10 0.00 95 1015.5
20260905150000 22 69 0.0 3.2 0.00 0.10 0.00 95 1015.5
20260905145458 22 53 0.0 1.6 0.00 0.10 0.00 95 1015.5
20260905144958 22 58 0.0 1.6 0.00 0.10 0.00 95 1015.5
20260905144458 22 70 0.0 1.6 0.00 0.10 0.00 95 1015.5
20260905143958 22 70 0.0 1.6 0.00 0.10 0.00 95 1015.6
20260905143458 22 57 0.0 1.6 0.00 0.10 0.00 95 1015.6
20260905142958 22 5 0.0 1.6 0.00 0.10 0.00 95 1015.4
20260905142458 22 351 0.0 1.6 0.00 0.10 0.00 95 1015.4
20260905141459 22 358 0.0 1.6 0.00 0.10 0.00 95 1015.5
20260905140958 22 359 0.0 1.6 0.00 0.10 0.00 95 1015.6
20260905140458 22 359 0.0 1.6 0.00 0.10 0.00 96 1015.5
20260905140003 22 359 0.0 1.6 0.00 0.10 0.00 95 1015.5
20260905135458 22 13 0.0 1.6 0.00 0.10 0.00 95 1015.3
20260905134958 22 8 0.0 1.6 0.00 0.10 0.00 95 1015.4
20260905134458 22 8 0.0 1.6 0.00 0.10 0.00 95 1015.2
20260905133959 22 72 0.0 1.6 0.00 0.10 0.00 95 1015.3
20260905132958 21 77 0.0 3.2 0.00 0.10 0.00 95 1015.2
20260905132458 21 68 0.0 1.6 0.00 0.10 0.00 95 1015.3
20260905131959 21 19 0.0 1.6 0.00 0.10 0.00 95 1015.4
20260905131458 21 19 0.0 1.6 0.00 0.10 0.00 95 1015.5
20260905130958 21 10 0.0 1.6 0.00 0.10 0.00 95 1015.6
20260905130458 21 9 0.0 1.6 0.00 0.10 0.00 95 1015.6
20260905125459 21 68 0.0 3.2 0.00 0.10 0.00 95 1015.1
20260905124958 21 68 0.0 3.2 0.00 0.10 0.00 95 1015.0
20260905123959 21 354 0.0 3.2 0.00 0.10 0.00 95 1014.9
20260905123458 21 71 0.0 1.6 0.00 0.10 0.00 95 1014.8
20260905122958 21 71 0.0 3.2 0.00 0.10 0.00 95 1014.5
20260905122458 21 72 0.0 3.2 0.00 0.10 0.00 95 1014.4
20260905121959 21 71 0.0 3.2 0.00 0.10 0.00 95 1014.3
20260905121458 21 75 0.0 3.2 0.00 0.10 0.00 95 1014.2
20260905120458 21 64 0.0 1.6 0.00 0.10 0.00 95 1014.2
20260905120000 22 64 0.0 1.6 0.00 0.10 0.00 95 1014.1
20260905115458 22 64 0.0 1.6 0.00 0.10 0.00 95 1014.1
20260905114958 22 64 0.0 1.6 0.00 0.10 0.00 95 1014.0
20260905113958 22 338 0.0 0.0 0.00 0.10 0.00 95 1013.9